Regional Weather Roundup
Issued by NWS Midland/Odessa, TX

Skip options and go directly to product.
Home | Oldest Version | Next Version | Current Version | All | Text Only | Save Text | Print | Product List | Glossary On

Skip product version selection by date and time.   
042
ASUS44 KMAF 170310
RWRMAF
MIDLAND AREA WEATHER ROUNDUP
NATIONAL WEATHER SERVICE MIDLAND TX
1000 PM CDT TUE SEP 16 2014

...IN SOUTHWEST TEXAS AND SOUTHEAST NEW MEXICO...

CITY           SKY/WX    TMP DP  RH WIND       PRES   REMARKS
ALPINE         PTCLDY    70  60  70 SE3       30.23R
ANDREWS        FAIR      71  68  91 NE5       30.13S
ARTESIA        NOT AVBL
BIG SPRING     CLOUDY    74  67  79 NE8       30.12R
CARLSBAD       CLOUDY    72  72 100 N6        30.12R
DRYDEN           N/A     81  66  60 CALM      30.03R
FORT STOCKTON  PTCLDY    75  63  66 SE5       30.10R
GUAD PASS      CLOUDY    65  60  84 NE26      30.23R
HOBBS          CLOUDY    68  68 100 NE7       30.16R
MARFA          PTCLDY    66  59  77 NE7       30.21R
MIDLAND AIRPK  NOT AVBL
MIDLAND INTL   CLOUDY    76  64  66 E9        30.10R
ODESSA         CLOUDY    75  66  73 E7        30.11R
PECOS          PTCLDY    74  63  68 E6        30.07R
PRESIDIO       FAIR      82  62  51 NE12      30.02S
SEMINOLE       CLOUDY    69  67  93 NE3       30.15S
SNYDER         CLOUDY    70  68  94 N5        30.09F
WINK           MOCLDY    77  63  61 E6        30.07R
$$
...OTHER STATIONS IN TEXAS...

CITY           SKY/WX    TMP DP  RH WIND       PRES   REMARKS
ABILENE        CLOUDY    81  65  58 E5        30.06R
AMARILLO       CLOUDY    70  62  76 SW10      30.12S
AUSTIN         LGT RAIN  77  73  87 NE5       30.02R
BROWNSVILLE    PTCLDY    80  77  90 SE8       29.97R
CORPUS CHRISTI MOCLDY    81  76  84 SE8       29.96R
DALLAS FTW     PTCLDY    83  67  58 SE6       30.01R
DEL RIO        PTCLDY    83  71  67 N3        29.96R
EL PASO        CLOUDY    71  66  84 N15       30.09R
HOUSTON INT    CLOUDY    76  75  97 CALM      30.01R
LUBBOCK        LGT RAIN  69  67  93 CALM      30.14R
SAN ANGELO     MOCLDY    80  66  62 E5        30.04R
SAN ANTONIO    MOCLDY    80  74  81 E6        30.01R
WACO           MOCLDY    80  72  76 S20G26    30.03R
WICHITA FALLS  NOT AVBL
$$
...OTHER LOCATIONS IN NEW MEXICO...

CITY           SKY/WX    TMP DP  RH WIND       PRES   REMARKS
ALAMAGORDO     CLOUDY    66  64  94 N7        30.15R
ALBUQUERQUE    CLOUDY    64  55  72 SE9       30.24R
CANNON AFB     MOCLDY    66  66 100 W6        30.19R
CLOVIS           N/A     66  61  82 SW10      30.20S
HOLLOMAN AFB   MOCLDY    66  63  89 N3        30.13R
ROSWELL        CLOUDY    68  66  93 NE3       30.15R FOG
RUIDOSO        CLOUDY    57  55  94 CALM      30.33S
SANTA FE       CLOUDY    63  52  67 SW9       30.27R
TRUTH OR CONSE CLOUDY    63  61  93 N6        30.18R
TUCUMCARI      MOCLDY    69  60  73 SW8       30.14R
$$

USA.gov is the U.S. government's official web portal to all federal, state and local government web resources and services.